Home   Weather   Little Rock   Past weeks
Flag for USA

Past Weather in Little Rock, Arkansas, USA — Yesterday and Last 2 Weeks

Now
67 °F

Passing clouds.


Feels Like: 67 °F
Forecast: 71 / 44 °F
Wind: 8 mph from Southeast

Location: Adams Field

Current Time: Oct 18, 2019 at 6:51:32 pm

Latest Report: Oct 18, 2019 at 5:53 pm


Visibility: 10 mi

Pressure: 29.85 "Hg

Humidity: 44%

Dew Point: 44 °F

Location of Little RockLocation

Past Weather in Little Rock — Graph

°F

Little Rock Temperature Yesterday

Maximum temperature yesterday: 67 °F (at 2:53 pm)
Minimum temperature yesterday: 42 °F (at 6:53 am)
Average temperature yesterday: 54 °F

High & Low Weather Summary for the Past Weeks

 TemperatureHumidityPressure
High89 °F (Oct 3, 4:53 pm)100% (Oct 15, 7:53 am)30.30 "Hg (Oct 15, 7:53 am)
Low38 °F (Oct 12, 6:53 am)25% (Oct 12, 2:53 pm)29.85 "Hg (Oct 15, 5:53 pm)
Average63 °F72%30.06 "Hg
* Reported Oct 3 4:53 pm — Oct 18 4:53 pm, Little Rock. Weather by CustomWeather, © 2019

Note: Actual official high and low records may vary slightly from our data, if they occured in-between our weather recording intervals... More about our weather records

Advertising

Little Rock Weather History for the Previous 24 Hours

Scroll right to see more
 ConditionsComfort  
Time TempWeatherWind HumidityBarometerVisibility
4:53 pm
Fri, Oct 18
69 °FPassing clouds.10 mph41%29.87 "Hg10 mi
3:53 pm70 °FPassing clouds.8 mph41%29.88 "Hg10 mi
2:53 pm69 °FPassing clouds.8 mph42%29.89 "Hg10 mi
1:53 pm68 °FPassing clouds.12 mph44%29.92 "Hg10 mi
12:53 pm67 °FPassing clouds.13 mph49%29.96 "Hg10 mi
11:53 am64 °FPassing clouds.7 mph54%29.99 "Hg10 mi
10:53 am60 °FPassing clouds.8 mph65%30.02 "Hg10 mi
9:53 am55 °FPassing clouds.No wind77%30.02 "Hg10 mi
8:53 am52 °FPassing clouds.No wind83%30.03 "Hg10 mi
7:53 am46 °FPassing clouds.No wind96%30.01 "Hg10 mi
6:53 am42 °FPassing clouds.No wind100%30.00 "Hg10 mi
5:53 am46 °FPassing clouds.No wind96%30.00 "Hg10 mi
4:53 am46 °FPassing clouds.No wind96%29.99 "Hg10 mi
3:53 am47 °FPassing clouds.3 mph97%29.98 "Hg10 mi
2:53 am47 °FClear.No wind93%29.98 "Hg8 mi
1:53 am47 °FPassing clouds.No wind97%29.98 "Hg9 mi
12:53 am48 °FPassing clouds.No wind96%30.00 "Hg10 mi
11:53 pm
Thu, Oct 17
50 °FPassing clouds.No wind93%30.00 "Hg10 mi
10:53 pm50 °FPassing clouds.No wind93%30.01 "Hg10 mi
9:53 pm52 °FClear.No wind86%30.01 "Hg10 mi
8:53 pm53 °FClear.No wind83%30.01 "Hg10 mi
7:53 pm55 °FPassing clouds.No wind74%30.00 "Hg10 mi
6:53 pm58 °FPassing clouds.No wind65%30.01 "Hg10 mi
Weather by CustomWeather, © 2019

See weather overview